Weather History for KGDV - May, 2013

Change the Weather History Date:

Thursday, May 23, 2013

  Actual Average Record
Temperature  
Mean Temperature 56 °F -  
Max Temperature 69 °F 66 °F 86 °F (2014)
Min Temperature 42 °F 42 °F 30 °F (2002)
Degree Days  
Heating Degree Days 10    
Growing Degree Days 6 (Base 50)    
Moisture  
Dew Point 39 °F    
Average Humidity 52    
Maximum Humidity 76    
Minimum Humidity 35    
Precipitation  
Precipitation 0.00 in - - ()
Sea Level Pressure  
Sea Level Pressure 30.07 in    
Wind  
Wind Speed 16 mph (ESE)    
Max Wind Speed 32 mph    
Max Gust Speed 41 mph    
Visibility 10 miles    
Events      
Averages and records for this station are not official NWS values.
T = Trace of Precipitation, MM = Missing Value Source: NWS Daily Summary

Daily Weather History Graph

Daily Weather History Graph

Search for Another Location

Airport or City:

Trip Planner

Search our weather history database for the weather conditions in past years. The results will help you decide how hot, cold, wet, or windy it might be!

Date:

Astronomy

May. 23, 2013 Rise Set
Actual Time 5:14 AM MDT 8:38 PM MDT
Civil Twilight 4:36 AM MDT 9:15 PM MDT
Nautical Twilight 3:47 AM MDT 10:05 PM MDT
Astronomical Twilight 2:43 AM MDT 11:10 PM MDT
Moon 7:09 PM MDT (5/23) 4:08 AM MDT (5/23)
Length of Visible Light 16h 39m
Length of Day
15h 23m
Waxing Gibbous, 97% of the Moon is Illuminated
May 23
Waxing Gibbous
May 24
Full
May 31
Last Quarter
Jun 8
New
Jun 16
First Quarter

Hourly Weather History & Observations

Time (MDT) Temp. Windchill Dew Point Humidity Pressure Visibility Wind Dir Wind Speed Gust Speed Precip Events Conditions
12:15 AM 48.2 °F - 33.8 °F 58% 30.15 in 10.0 mi East 8.1 mph - N/A   Clear
12:35 AM 50.0 °F - 35.6 °F 58% 30.16 in 10.0 mi ESE 11.5 mph - N/A   Clear
12:55 AM 50.0 °F - 35.6 °F 58% 30.16 in 10.0 mi ESE 10.4 mph - N/A   Clear
1:15 AM 48.2 °F - 35.6 °F 62% 30.16 in 10.0 mi ESE 9.2 mph - N/A   Clear
1:35 AM 48.2 °F - 35.6 °F 62% 30.16 in 10.0 mi ESE 11.5 mph - N/A   Clear
1:55 AM 50.0 °F - 35.6 °F 58% 30.16 in 10.0 mi ESE 12.7 mph - N/A   Clear
2:15 AM 50.0 °F - 35.6 °F 58% 30.16 in 10.0 mi ESE 13.8 mph - N/A   Clear
2:35 AM 48.2 °F - 35.6 °F 62% 30.15 in 10.0 mi East 12.7 mph - N/A   Clear
2:55 AM 48.2 °F - 35.6 °F 62% 30.16 in 10.0 mi East 9.2 mph - N/A   Clear
3:15 AM 44.6 °F 39.7 °F 35.6 °F 71% 30.16 in 10.0 mi East 9.2 mph - N/A   Clear
3:35 AM 44.6 °F 39.2 °F 35.6 °F 71% 30.16 in 10.0 mi East 10.4 mph - N/A   Clear
3:55 AM 44.6 °F 40.7 °F 35.6 °F 71% 30.16 in 10.0 mi East 6.9 mph - N/A   Clear
4:15 AM 44.6 °F 40.7 °F 35.6 °F 71% 30.16 in 10.0 mi East 6.9 mph - N/A   Clear
4:35 AM 44.6 °F 40.2 °F 35.6 °F 71% 30.15 in 10.0 mi East 8.1 mph - N/A   Clear
4:55 AM 42.8 °F 38.0 °F 35.6 °F 76% 30.15 in 10.0 mi East 8.1 mph - N/A   Clear
5:15 AM 44.6 °F 39.2 °F 35.6 °F 71% 30.15 in 10.0 mi East 10.4 mph - N/A   Clear
5:55 AM 44.6 °F 38.1 °F 37.4 °F 76% 30.15 in 10.0 mi East 13.8 mph - N/A   Clear
6:15 AM 46.4 °F 41.1 °F 37.4 °F 71% 30.15 in 10.0 mi East 11.5 mph - N/A   Clear
6:35 AM 48.2 °F - 37.4 °F 66% 30.15 in 10.0 mi East 11.5 mph - N/A   Clear
6:55 AM 48.2 °F - 39.2 °F 71% 30.15 in 10.0 mi East 16.1 mph - N/A   Clear
7:15 AM 51.8 °F - 39.2 °F 62% 30.15 in 10.0 mi East 15.0 mph - N/A   Clear
7:35 AM 53.6 °F - 41.0 °F 62% 30.15 in 10.0 mi East 17.3 mph - N/A   Clear
7:55 AM 53.6 °F - 42.8 °F 67% 30.14 in 10.0 mi East 17.3 mph 21.9 mph N/A   Clear
8:15 AM 55.4 °F - 44.6 °F 67% 30.14 in 10.0 mi East 20.7 mph - N/A   Clear
8:35 AM 57.2 °F - 44.6 °F 63% 30.14 in 10.0 mi ESE 19.6 mph 25.3 mph N/A   Clear
8:55 AM 59.0 °F - 44.6 °F 59% 30.14 in 10.0 mi ESE 21.9 mph 26.5 mph N/A   Clear
9:15 AM 60.8 °F - 42.8 °F 52% 30.13 in 10.0 mi ESE 23.0 mph 29.9 mph N/A   Clear
9:55 AM 62.6 °F - 42.8 °F 48% 30.12 in 10.0 mi SE 27.6 mph 31.1 mph N/A   Clear
10:55 AM 64.4 °F - 39.2 °F 40% 30.10 in 10.0 mi SE 26.5 mph 38.0 mph N/A   Clear
11:15 AM 64.4 °F - 39.2 °F 40% 30.10 in 10.0 mi SE 28.8 mph 38.0 mph N/A   Clear
11:35 AM 64.4 °F - 42.8 °F 45% 30.10 in 10.0 mi ESE 26.5 mph 34.5 mph N/A   Partly Cloudy
11:55 AM 66.2 °F - 42.8 °F 43% 30.09 in 10.0 mi SE 20.7 mph 36.8 mph N/A   Scattered Clouds
12:15 PM 66.2 °F - 42.8 °F 43% 30.08 in 10.0 mi ESE 31.1 mph 39.1 mph N/A   Partly Cloudy
12:35 PM 66.2 °F - 42.8 °F 43% 30.07 in 10.0 mi SE 31.1 mph 35.7 mph N/A   Partly Cloudy
12:55 PM 66.2 °F - 39.2 °F 37% 30.07 in 10.0 mi SE 28.8 mph 36.8 mph N/A   Clear
1:15 PM 66.2 °F - 39.2 °F 37% 30.07 in 10.0 mi SE 26.5 mph 39.1 mph N/A   Clear
1:35 PM 66.2 °F - 37.4 °F 35% 30.06 in 10.0 mi ESE 32.2 mph 39.1 mph N/A   Clear
1:55 PM 66.2 °F - 39.2 °F 37% 30.05 in 10.0 mi SE 26.5 mph 39.1 mph N/A   Clear
2:15 PM 66.2 °F - 39.2 °F 37% 30.04 in 10.0 mi SE 20.7 mph 36.8 mph N/A   Clear
2:35 PM 64.4 °F - 39.2 °F 40% 30.03 in 10.0 mi SE 25.3 mph 38.0 mph N/A   Clear
2:55 PM 66.2 °F - 39.2 °F 37% 30.03 in 10.0 mi SE 25.3 mph 38.0 mph N/A   Partly Cloudy
3:35 PM 68.0 °F - 41.0 °F 37% 30.01 in 10.0 mi SE 25.3 mph 38.0 mph N/A   Clear
3:55 PM 66.2 °F - 39.2 °F 37% 30.01 in 10.0 mi SE 26.5 mph 35.7 mph N/A   Clear
4:35 PM 69.8 °F - 41.0 °F 35% 30.00 in 10.0 mi SE 28.8 mph 36.8 mph N/A   Clear
4:55 PM 68.0 °F - 39.2 °F 35% 29.99 in 10.0 mi SE 29.9 mph 41.4 mph N/A   Clear
5:35 PM 68.0 °F - 39.2 °F 35% 29.98 in 10.0 mi SE 27.6 mph 39.1 mph N/A   Clear
6:15 PM 68.0 °F - 42.8 °F 40% 29.97 in 10.0 mi SE 25.3 mph 39.1 mph N/A   Clear
6:35 PM 66.2 °F - 41.0 °F 40% 29.97 in 10.0 mi SE 23.0 mph 40.3 mph N/A   Clear
6:55 PM 66.2 °F - 41.0 °F 40% 29.97 in 10.0 mi SE 27.6 mph 36.8 mph N/A   Clear
7:15 PM 66.2 °F - 41.0 °F 40% 29.97 in 10.0 mi SE 25.3 mph 40.3 mph N/A   Clear
7:35 PM 64.4 °F - 41.0 °F 42% 29.96 in 10.0 mi SE 19.6 mph 33.4 mph N/A   Clear
7:55 PM 64.4 °F - 41.0 °F 42% 29.96 in 10.0 mi SE 18.4 mph 28.8 mph N/A   Clear
8:15 PM 62.6 °F - 41.0 °F 45% 29.95 in 10.0 mi SE 18.4 mph 33.4 mph N/A   Clear
8:35 PM 62.6 °F - 41.0 °F 45% 29.96 in 10.0 mi SE 17.3 mph 26.5 mph N/A   Clear
8:56 PM 60.8 °F - 41.0 °F 48% 29.95 in 10.0 mi SE 18.4 mph 24.2 mph N/A   Clear
9:15 PM 60.8 °F - 41.0 °F 48% 29.96 in 10.0 mi SE 17.3 mph 29.9 mph N/A   Partly Cloudy
9:35 PM 60.8 °F - 41.0 °F 48% 29.95 in 10.0 mi SE 18.4 mph 26.5 mph N/A   Clear
9:55 PM 60.8 °F - 39.2 °F 45% 29.94 in 10.0 mi SE 20.7 mph 31.1 mph N/A   Clear
10:15 PM 60.8 °F - 41.0 °F 48% 29.95 in 10.0 mi ESE 20.7 mph 28.8 mph N/A   Clear
10:35 PM 59.0 °F - 41.0 °F 51% 29.94 in 10.0 mi SE 19.6 mph 26.5 mph N/A   Clear
10:55 PM 59.0 °F - 39.2 °F 48% 29.94 in 10.0 mi SE 20.7 mph 31.1 mph N/A   Clear
11:15 PM 59.0 °F - 41.0 °F 51% 29.93 in 10.0 mi SE 23.0 mph 27.6 mph N/A   Clear
11:35 PM 57.2 °F - 41.0 °F 55% 29.92 in 10.0 mi ESE 23.0 mph 28.8 mph N/A   Clear
11:55 PM 57.2 °F - 41.0 °F 55% 29.92 in 10.0 mi ESE 20.7 mph 28.8 mph N/A   Clear